Time,TemperatureF,DewpointF,PressureIn,WindDirection,WindDirectionDegrees,WindSpeedMPH,WindSpeedGustMPH,Humidity,HourlyPrecipIn,Conditions,Clouds,dailyrainin,SoftwareType,DateUTC
2013-03-17 00:00:00,54.7,39.7,29.88,SW,223,0.0,2.5,57,0.00,,,0.00,WSDL version 420,2013-03-17 07:00:00,
2013-03-17 00:05:00,54.5,39.9,29.88,South,174,0.4,2.0,58,0.00,,,0.00,WSDL version 420,2013-03-17 07:05:00,
2013-03-17 00:10:00,54.5,40.0,29.88,SSE,158,1.9,2.9,58,0.00,,,0.00,WSDL version 420,2013-03-17 07:10:00,
2013-03-17 00:15:00,54.5,40.5,29.88,SSE,152,0.6,2.9,59,0.00,,,0.00,WSDL version 420,2013-03-17 07:15:00,
2013-03-17 00:20:00,54.5,40.5,29.88,East,83,2.5,4.3,59,0.00,,,0.00,WSDL version 420,2013-03-17 07:20:00,
2013-03-17 00:25:00,54.5,40.5,29.88,North,353,0.6,4.3,59,0.00,,,0.00,WSDL version 420,2013-03-17 07:25:00,
2013-03-17 00:30:00,54.6,40.4,29.88,NE,56,1.1,2.7,58,0.00,,,0.00,WSDL version 420,2013-03-17 07:30:00,
2013-03-17 00:35:00,54.5,40.0,29.88,SSW,203,0.3,2.5,58,0.00,,,0.00,WSDL version 420,2013-03-17 07:35:00,
2013-03-17 00:40:00,54.4,39.9,29.88,East,90,0.1,2.5,58,0.00,,,0.00,WSDL version 420,2013-03-17 07:40:00,
2013-03-17 00:45:00,54.2,39.7,29.88,ENE,70,0.4,2.9,58,0.00,,,0.00,WSDL version 420,2013-03-17 07:45:00,
2013-03-17 00:50:00,54.3,39.8,29.88,NW,312,2.9,5.4,58,0.00,,,0.00,WSDL version 420,2013-03-17 07:50:00,
2013-03-17 00:55:00,54.6,40.1,29.88,NNW,328,2.1,5.4,58,0.00,,,0.00,WSDL version 420,2013-03-17 07:55:00,
2013-03-17 01:00:00,54.9,39.7,29.88,NNW,335,2.7,4.7,56,0.00,,,0.00,WSDL version 420,2013-03-17 08:00:00,
2013-03-17 01:05:00,55.0,39.6,29.88,NNW,332,0.9,4.7,56,0.00,,,0.00,WSDL version 420,2013-03-17 08:05:00,
2013-03-17 01:10:00,55.0,39.6,29.88,NNW,338,2.6,3.8,56,0.00,,,0.00,WSDL version 420,2013-03-17 08:10:00,
2013-03-17 01:15:00,54.8,39.4,29.88,WNW,290,0.0,3.8,56,0.00,,,0.00,WSDL version 420,2013-03-17 08:15:00,
2013-03-17 01:20:00,54.5,39.2,29.88,NNW,343,1.9,3.4,56,0.00,,,0.00,WSDL version 420,2013-03-17 08:20:00,
2013-03-17 01:25:00,54.5,39.3,29.88,NW,315,3.1,4.3,57,0.00,,,0.00,WSDL version 420,2013-03-17 08:25:00,
2013-03-17 01:30:00,54.5,39.6,29.88,NW,308,3.6,6.5,57,0.00,,,0.00,WSDL version 420,2013-03-17 08:30:00,
2013-03-17 01:35:00,54.6,39.3,29.88,WNW,300,7.5,13.0,55,0.00,,,0.00,WSDL version 420,2013-03-17 08:35:00,
2013-03-17 01:40:00,54.5,38.7,29.88,WNW,284,6.6,13.0,55,0.00,,,0.00,WSDL version 420,2013-03-17 08:40:00,
2013-03-17 01:45:00,54.4,38.6,29.88,NW,305,5.0,9.8,55,0.00,,,0.00,WSDL version 420,2013-03-17 08:45:00,
2013-03-17 01:50:00,54.2,38.3,29.88,West,276,2.7,8.1,54,0.00,,,0.00,WSDL version 420,2013-03-17 08:50:00,
2013-03-17 01:55:00,53.9,37.7,29.88,NW,325,2.4,6.3,54,0.00,,,0.00,WSDL version 420,2013-03-17 08:55:00,
2013-03-17 02:00:00,53.7,37.5,29.88,NW,312,3.4,6.0,54,0.00,,,0.00,WSDL version 420,2013-03-17 09:00:00,
2013-03-17 02:05:00,53.5,37.6,29.88,WNW,298,2.3,6.0,55,0.00,,,0.00,WSDL version 420,2013-03-17 09:05:00,
2013-03-17 02:10:00,53.2,37.7,29.88,NW,312,2.6,4.9,56,0.00,,,0.00,WSDL version 420,2013-03-17 09:10:00,
2013-03-17 02:15:00,53.1,38.0,29.88,North,349,1.8,4.9,57,0.00,,,0.00,WSDL version 420,2013-03-17 09:15:00,
2013-03-17 02:20:00,52.9,38.3,29.88,NW,309,2.7,4.9,58,0.00,,,0.00,WSDL version 420,2013-03-17 09:20:00,
2013-03-17 02:25:00,52.9,38.9,29.88,WNW,301,1.6,4.3,59,0.00,,,0.00,WSDL version 420,2013-03-17 09:25:00,
2013-03-17 02:30:00,52.7,38.8,29.88,East,79,1.0,3.8,59,0.00,,,0.00,WSDL version 420,2013-03-17 09:30:00,
2013-03-17 02:35:00,52.5,38.9,29.88,ESE,107,1.2,2.9,60,0.00,,,0.00,WSDL version 420,2013-03-17 09:35:00,
2013-03-17 02:40:00,52.3,38.7,29.88,NNW,345,1.1,3.6,59,0.00,,,0.00,WSDL version 420,2013-03-17 09:40:00,
2013-03-17 02:45:00,52.2,38.9,29.91,WNW,300,0.9,3.6,60,0.00,,,0.00,WSDL version 420,2013-03-17 09:45:00,
2013-03-17 02:50:00,52.2,39.1,29.91,NW,309,0.4,3.4,61,0.00,,,0.00,WSDL version 420,2013-03-17 09:50:00,
2013-03-17 02:55:00,52.5,39.9,29.91,NW,305,1.0,3.6,62,0.00,,,0.00,WSDL version 420,2013-03-17 09:55:00,
2013-03-17 03:00:00,52.6,39.7,29.88,WNW,287,2.7,3.6,61,0.00,,,0.00,WSDL version 420,2013-03-17 10:00:00,
2013-03-17 03:05:00,52.6,39.1,29.88,WNW,290,1.4,3.6,60,0.00,,,0.00,WSDL version 420,2013-03-17 10:05:00,
2013-03-17 03:10:00,52.4,38.8,29.88,WNW,301,1.3,4.0,59,0.00,,,0.00,WSDL version 420,2013-03-17 10:10:00,
2013-03-17 03:15:00,52.3,38.4,29.88,WNW,296,2.2,4.0,59,0.00,,,0.00,WSDL version 420,2013-03-17 10:15:00,
2013-03-17 03:20:00,52.3,38.5,29.88,WNW,303,2.3,3.8,59,0.00,,,0.00,WSDL version 420,2013-03-17 10:20:00,
2013-03-17 03:25:00,52.2,38.4,29.88,NW,325,1.9,3.8,60,0.00,,,0.00,WSDL version 420,2013-03-17 10:25:00,
2013-03-17 03:30:00,52.2,38.6,29.91,NNW,348,2.1,3.4,60,0.00,,,0.00,WSDL version 420,2013-03-17 10:30:00,
2013-03-17 03:35:00,51.9,38.5,29.91,NW,321,0.3,3.4,60,0.00,,,0.00,WSDL version 420,2013-03-17 10:35:00,
2013-03-17 03:40:00,51.9,38.4,29.91,NW,325,1.4,2.9,60,0.00,,,0.00,WSDL version 420,2013-03-17 10:40:00,
2013-03-17 03:45:00,51.7,38.5,29.88,NW,315,0.0,2.9,61,0.00,,,0.00,WSDL version 420,2013-03-17 10:45:00,
2013-03-17 03:50:00,51.6,38.6,29.88,NW,315,0.0,2.0,61,0.00,,,0.00,WSDL version 420,2013-03-17 10:50:00,
2013-03-17 03:55:00,51.5,38.5,29.88,NW,315,0.0,0.0,61,0.00,,,0.00,WSDL version 420,2013-03-17 10:55:00,
2013-03-17 04:00:00,51.3,38.3,29.88,WSW,242,1.5,2.5,61,0.00,,,0.00,WSDL version 420,2013-03-17 11:00:00,
2013-03-17 04:05:00,51.0,38.2,29.88,SSW,203,1.3,2.5,62,0.00,,,0.00,WSDL version 420,2013-03-17 11:05:00,
2013-03-17 04:10:00,50.8,37.9,29.88,South,180,1.2,2.5,62,0.00,,,0.00,WSDL version 420,2013-03-17 11:10:00,
2013-03-17 04:15:00,50.6,38.1,29.88,South,183,0.7,2.5,62,0.00,,,0.00,WSDL version 420,2013-03-17 11:15:00,
2013-03-17 04:20:00,50.5,37.9,29.88,SSW,203,2.2,3.8,62,0.00,,,0.00,WSDL version 420,2013-03-17 11:20:00,
2013-03-17 04:25:00,50.3,37.8,29.88,South,180,0.9,3.8,63,0.00,,,0.00,WSDL version 420,2013-03-17 11:25:00,
2013-03-17 04:30:00,50.1,37.6,29.88,South,174,0.6,2.5,63,0.00,,,0.00,WSDL version 420,2013-03-17 11:30:00,
2013-03-17 04:35:00,49.8,37.7,29.88,South,177,0.0,2.5,63,0.00,,,0.00,WSDL version 420,2013-03-17 11:35:00,
2013-03-17 04:40:00,49.6,37.7,29.88,South,180,1.7,3.1,64,0.00,,,0.00,WSDL version 420,2013-03-17 11:40:00,
2013-03-17 04:45:00,49.4,37.8,29.88,South,174,0.5,3.1,65,0.00,,,0.00,WSDL version 420,2013-03-17 11:45:00,
2013-03-17 04:50:00,49.2,37.9,29.88,South,185,0.3,2.5,65,0.00,,,0.00,WSDL version 420,2013-03-17 11:50:00,
2013-03-17 04:55:00,49.1,38.2,29.88,SW,228,0.2,2.5,66,0.00,,,0.00,WSDL version 420,2013-03-17 11:55:00,
2013-03-17 05:00:00,49.1,38.4,29.88,SSW,203,1.2,2.2,67,0.00,,,0.00,WSDL version 420,2013-03-17 12:00:00,
2013-03-17 05:05:00,49.1,38.8,29.88,West,280,1.5,2.7,68,0.00,,,0.00,WSDL version 420,2013-03-17 12:05:00,
2013-03-17 05:10:00,49.1,39.1,29.88,SW,225,1.8,2.9,69,0.00,,,0.00,WSDL version 420,2013-03-17 12:10:00,
2013-03-17 05:15:00,49.0,39.1,29.88,NNE,28,0.0,2.9,68,0.00,,,0.00,WSDL version 420,2013-03-17 12:15:00,
2013-03-17 05:20:00,48.8,38.9,29.88,NW,318,0.0,1.6,69,0.00,,,0.00,WSDL version 420,2013-03-17 12:20:00,
2013-03-17 05:25:00,48.7,39.3,29.88,SSW,203,0.2,2.2,70,0.00,,,0.00,WSDL version 420,2013-03-17 12:25:00,
2013-03-17 05:30:00,48.6,39.3,29.88,SSW,203,0.0,2.2,71,0.00,,,0.00,WSDL version 420,2013-03-17 12:30:00,
2013-03-17 05:35:00,48.6,39.6,29.88,SSW,203,0.0,0.0,71,0.00,,,0.00,WSDL version 420,2013-03-17 12:35:00,
2013-03-17 05:40:00,48.5,39.6,29.88,SSW,203,0.0,0.0,72,0.00,,,0.00,WSDL version 420,2013-03-17 12:40:00,
2013-03-17 05:45:00,48.4,39.5,29.88,South,180,0.5,2.2,71,0.00,,,0.00,WSDL version 420,2013-03-17 12:45:00,
2013-03-17 05:50:00,48.3,39.5,29.88,South,180,0.9,2.2,72,0.00,,,0.00,WSDL version 420,2013-03-17 12:50:00,
2013-03-17 05:55:00,48.1,39.6,29.88,South,183,0.5,2.0,72,0.00,,,0.00,WSDL version 420,2013-03-17 12:55:00,
2013-03-17 06:00:00,48.0,39.5,29.88,SSW,195,0.0,2.0,72,0.00,,,0.00,WSDL version 420,2013-03-17 13:00:00,
2013-03-17 06:05:00,47.9,39.6,29.88,SSW,203,0.1,2.0,73,0.00,,,0.00,WSDL version 420,2013-03-17 13:05:00,
2013-03-17 06:10:00,47.8,39.6,29.88,WSW,250,0.6,2.0,73,0.00,,,0.00,WSDL version 420,2013-03-17 13:10:00,
2013-03-17 06:15:00,47.8,39.6,29.88,SSW,203,0.0,2.0,73,0.00,,,0.00,WSDL version 420,2013-03-17 13:15:00,
2013-03-17 06:20:00,47.9,39.6,29.88,WNW,295,3.0,3.8,73,0.00,,,0.00,WSDL version 420,2013-03-17 13:20:00,
2013-03-17 06:25:00,48.0,40.0,29.88,West,280,2.7,4.0,74,0.00,,,0.00,WSDL version 420,2013-03-17 13:25:00,
2013-03-17 06:30:00,48.1,40.1,29.88,West,273,3.1,4.0,74,0.00,,,0.00,WSDL version 420,2013-03-17 13:30:00,
2013-03-17 06:35:00,48.2,40.2,29.88,WNW,288,2.6,4.7,73,0.00,,,0.00,WSDL version 420,2013-03-17 13:35:00,
2013-03-17 06:40:00,48.3,40.3,29.88,WNW,295,3.1,4.7,74,0.00,,,0.00,WSDL version 420,2013-03-17 13:40:00,
2013-03-17 06:45:00,48.4,40.1,29.91,West,281,1.8,4.5,73,0.00,,,0.00,WSDL version 420,2013-03-17 13:45:00,
2013-03-17 06:50:00,48.2,39.9,29.91,SW,220,0.6,3.6,73,0.00,,,0.00,WSDL version 420,2013-03-17 13:50:00,
2013-03-17 06:55:00,47.9,39.7,29.91,WNW,290,1.5,2.7,73,0.00,,,0.00,WSDL version 420,2013-03-17 13:55:00,
2013-03-17 07:00:00,47.8,39.6,29.91,South,188,0.0,2.7,73,0.00,,,0.00,WSDL version 420,2013-03-17 14:00:00,
2013-03-17 07:05:00,47.6,39.4,29.91,West,270,0.0,2.0,73,0.00,,,0.00,WSDL version 420,2013-03-17 14:05:00,
2013-03-17 07:10:00,47.5,39.2,29.91,SSW,203,0.7,2.0,73,0.00,,,0.00,WSDL version 420,2013-03-17 14:10:00,
2013-03-17 07:15:00,47.3,39.1,29.91,SSW,203,0.0,1.3,73,0.00,,,0.00,WSDL version 420,2013-03-17 14:15:00,
2013-03-17 07:20:00,47.2,39.0,29.91,SSW,203,0.4,2.0,73,0.00,,,0.00,WSDL version 420,2013-03-17 14:20:00,
2013-03-17 07:25:00,47.1,38.9,29.91,West,268,0.4,2.2,73,0.00,,,0.00,WSDL version 420,2013-03-17 14:25:00,
2013-03-17 07:30:00,47.1,38.9,29.91,NW,309,1.3,2.2,73,0.00,,,0.00,WSDL version 420,2013-03-17 14:30:00,
2013-03-17 07:35:00,47.2,39.0,29.91,WNW,295,0.6,2.2,73,0.00,,,0.00,WSDL version 420,2013-03-17 14:35:00,
2013-03-17 07:40:00,47.3,39.1,29.91,NW,309,0.7,3.4,73,0.00,,,0.00,WSDL version 420,2013-03-17 14:40:00,
2013-03-17 07:45:00,47.4,39.2,29.91,WNW,288,1.6,3.6,73,0.00,,,0.00,WSDL version 420,2013-03-17 14:45:00,
2013-03-17 07:50:00,47.6,39.4,29.91,WNW,295,2.6,4.3,73,0.00,,,0.00,WSDL version 420,2013-03-17 14:50:00,
2013-03-17 07:55:00,47.9,40.1,29.91,WNW,283,3.3,4.3,74,0.00,,,0.00,WSDL version 420,2013-03-17 14:55:00,
2013-03-17 08:00:00,48.2,40.1,29.94,WNW,295,3.6,4.3,73,0.00,,,0.00,WSDL version 420,2013-03-17 15:00:00,
2013-03-17 08:05:00,48.4,40.2,29.94,NW,309,2.3,4.3,73,0.00,,,0.00,WSDL version 420,2013-03-17 15:05:00,
2013-03-17 08:12:00,48.7,40.5,29.94,NW,310,1.4,3.4,73,0.00,,,0.00,WSDL version 420,2013-03-17 15:12:00,
2013-03-17 08:17:00,48.9,40.6,29.91,WNW,287,2.7,4.0,73,0.00,,,0.00,WSDL version 420,2013-03-17 15:17:00,
2013-03-17 08:22:00,49.2,40.8,29.91,WNW,285,2.3,4.0,72,0.00,,,0.00,WSDL version 420,2013-03-17 15:22:00,
2013-03-17 08:29:00,49.5,40.9,29.91,WNW,287,3.1,4.9,72,0.00,,,0.00,WSDL version 420,2013-03-17 15:29:00,
2013-03-17 08:34:00,49.7,41.0,29.91,WNW,288,3.2,4.9,71,0.00,,,0.00,WSDL version 420,2013-03-17 15:34:00,
2013-03-17 08:39:00,49.9,40.9,29.91,WNW,295,4.1,6.7,71,0.00,,,0.00,WSDL version 420,2013-03-17 15:39:00,
2013-03-17 08:44:00,50.3,40.9,29.94,WNW,295,3.2,6.7,70,0.00,,,0.00,WSDL version 420,2013-03-17 15:44:00,
2013-03-17 08:49:00,51.1,41.6,29.94,West,280,2.8,5.6,69,0.00,,,0.00,WSDL version 420,2013-03-17 15:49:00,
2013-03-17 08:54:00,52.0,41.4,29.94,WNW,293,3.0,4.3,65,0.00,,,0.00,WSDL version 420,2013-03-17 15:54:00,
2013-03-17 08:59:00,52.4,40.3,29.94,WNW,285,1.7,4.3,63,0.00,,,0.00,WSDL version 420,2013-03-17 15:59:00,
2013-03-17 09:04:00,53.0,40.6,29.91,NW,304,1.5,4.3,61,0.00,,,0.00,WSDL version 420,2013-03-17 16:04:00,
2013-03-17 09:09:00,53.5,39.2,29.91,NW,308,2.9,4.7,57,0.00,,,0.00,WSDL version 420,2013-03-17 16:09:00,
2013-03-17 09:14:00,53.4,37.7,29.91,WNW,295,3.1,4.9,54,0.00,,,0.00,WSDL version 420,2013-03-17 16:14:00,
2013-03-17 09:19:00,53.1,36.4,29.91,WNW,290,3.1,6.0,53,0.00,,,0.00,WSDL version 420,2013-03-17 16:19:00,
2013-03-17 09:24:00,53.1,36.3,29.91,WNW,285,2.8,6.0,52,0.00,,,0.00,WSDL version 420,2013-03-17 16:24:00,
2013-03-17 09:29:00,53.1,35.9,29.91,WNW,293,3.9,6.9,51,0.00,,,0.00,WSDL version 420,2013-03-17 16:29:00,
2013-03-17 09:34:00,53.5,36.3,29.94,SW,233,2.4,6.9,52,0.00,,,0.00,WSDL version 420,2013-03-17 16:34:00,
2013-03-17 09:39:00,53.9,36.1,29.94,NW,312,2.9,6.5,50,0.00,,,0.00,WSDL version 420,2013-03-17 16:39:00,
2013-03-17 09:40:00,54.0,35.9,29.94,WNW,293,2.9,6.5,50,0.00,,,0.00,WSDL version 420,2013-03-17 16:40:00,
2013-03-17 09:45:00,54.2,36.0,29.94,NW,313,2.6,4.9,50,0.00,,,0.00,WSDL version 420,2013-03-17 16:45:00,
2013-03-17 09:50:00,54.6,36.2,29.94,WNW,293,2.5,4.9,50,0.00,,,0.00,WSDL version 420,2013-03-17 16:50:00,
2013-03-17 09:55:00,55.0,36.6,29.94,WNW,303,2.7,4.9,49,0.00,,,0.00,WSDL version 420,2013-03-17 16:55:00,
2013-03-17 10:00:00,55.0,35.9,29.94,WNW,283,3.5,4.9,48,0.00,,,0.00,WSDL version 420,2013-03-17 17:00:00,
2013-03-17 10:05:00,54.9,35.6,29.94,NW,308,4.1,5.6,48,0.00,,,0.00,WSDL version 420,2013-03-17 17:05:00,
2013-03-17 10:10:00,55.0,35.7,29.94,NW,325,3.6,6.0,48,0.00,,,0.00,WSDL version 420,2013-03-17 17:10:00,
2013-03-17 10:15:00,55.1,35.5,29.94,NW,312,3.0,7.2,48,0.00,,,0.00,WSDL version 420,2013-03-17 17:15:00,
2013-03-17 10:20:00,55.5,35.6,29.94,NE,35,3.0,7.2,47,0.00,,,0.00,WSDL version 420,2013-03-17 17:20:00,
2013-03-17 10:25:00,55.8,35.9,29.94,NNW,335,4.1,6.9,47,0.00,,,0.00,WSDL version 420,2013-03-17 17:25:00,
2013-03-17 10:30:00,55.8,35.9,29.94,WNW,303,3.3,7.6,47,0.00,,,0.00,WSDL version 420,2013-03-17 17:30:00,
2013-03-17 10:35:00,56.1,36.2,29.94,NW,323,3.8,7.6,47,0.00,,,0.00,WSDL version 420,2013-03-17 17:35:00,
2013-03-17 10:40:00,56.1,35.6,29.94,NW,326,3.9,6.3,46,0.00,,,0.00,WSDL version 420,2013-03-17 17:40:00,
2013-03-17 10:45:00,56.3,35.8,29.94,WNW,290,3.9,5.8,46,0.00,,,0.00,WSDL version 420,2013-03-17 17:45:00,
2013-03-17 10:50:00,56.6,36.0,29.94,North,3,3.1,5.8,45,0.00,,,0.00,WSDL version 420,2013-03-17 17:50:00,
2013-03-17 10:55:00,56.8,36.2,29.94,WNW,300,3.3,5.4,46,0.00,,,0.00,WSDL version 420,2013-03-17 17:55:00,
2013-03-17 11:00:00,56.8,35.7,29.94,NW,323,4.0,7.6,45,0.00,,,0.00,WSDL version 420,2013-03-17 18:00:00,
2013-03-17 11:05:00,56.8,35.6,29.94,North,360,3.4,8.1,45,0.00,,,0.00,WSDL version 420,2013-03-17 18:05:00,
2013-03-17 11:10:00,57.4,35.9,29.94,WNW,298,2.8,8.1,45,0.00,,,0.00,WSDL version 420,2013-03-17 18:10:00,
2013-03-17 11:15:00,57.3,35.2,29.91,West,281,3.3,7.6,43,0.00,,,0.00,WSDL version 420,2013-03-17 18:15:00,
2013-03-17 11:20:00,57.2,35.2,29.91,WNW,288,4.1,7.6,44,0.00,,,0.00,WSDL version 420,2013-03-17 18:20:00,
2013-03-17 11:25:00,57.7,35.8,29.91,NW,307,3.1,6.3,44,0.00,,,0.00,WSDL version 420,2013-03-17 18:25:00,
2013-03-17 11:30:00,57.7,35.1,29.91,NW,313,3.6,5.8,42,0.00,,,0.00,WSDL version 420,2013-03-17 18:30:00,
2013-03-17 11:35:00,57.6,34.6,29.91,NNW,335,3.7,6.3,41,0.00,,,0.00,WSDL version 420,2013-03-17 18:35:00,
2013-03-17 11:40:00,58.2,35.3,29.91,WSW,250,2.7,6.3,43,0.00,,,0.00,WSDL version 420,2013-03-17 18:40:00,
2013-03-17 11:45:00,58.8,35.9,29.91,WNW,285,3.4,5.4,42,0.00,,,0.00,WSDL version 420,2013-03-17 18:45:00,
2013-03-17 11:50:00,58.8,35.2,29.91,NNW,335,3.4,5.6,41,0.00,,,0.00,WSDL version 420,2013-03-17 18:50:00,
2013-03-17 11:55:00,58.9,34.8,29.91,North,350,3.3,5.6,40,0.00,,,0.00,WSDL version 420,2013-03-17 18:55:00,
2013-03-17 12:00:00,59.7,35.4,29.91,West,280,2.3,4.3,40,0.00,,,0.00,WSDL version 420,2013-03-17 19:00:00,
2013-03-17 12:05:00,59.9,34.7,29.91,NW,323,3.4,5.6,38,0.00,,,0.00,WSDL version 420,2013-03-17 19:05:00,
2013-03-17 12:10:00,60.0,34.3,29.91,North,357,2.2,5.6,38,0.00,,,0.00,WSDL version 420,2013-03-17 19:10:00,
2013-03-17 12:15:00,60.5,34.7,29.91,NW,315,2.4,4.9,38,0.00,,,0.00,WSDL version 420,2013-03-17 19:15:00,
2013-03-17 12:20:00,61.3,35.6,29.91,North,355,2.9,4.9,37,0.00,,,0.00,WSDL version 420,2013-03-17 19:20:00,
2013-03-17 12:25:00,61.4,34.9,29.91,WNW,287,2.6,5.4,37,0.00,,,0.00,WSDL version 420,2013-03-17 19:25:00,
2013-03-17 12:30:00,61.9,35.7,29.88,WNW,283,2.5,5.4,37,0.00,,,0.00,WSDL version 420,2013-03-17 19:30:00,
2013-03-17 12:35:00,62.3,35.8,29.88,NW,325,3.1,4.7,37,0.00,,,0.00,WSDL version 420,2013-03-17 19:35:00,
2013-03-17 12:40:00,62.6,36.0,29.88,ENE,65,0.2,4.7,37,0.00,,,0.00,WSDL version 420,2013-03-17 19:40:00,
2013-03-17 12:45:00,63.2,35.8,29.88,North,8,2.5,4.3,36,0.00,,,0.00,WSDL version 420,2013-03-17 19:45:00,
2013-03-17 12:50:00,63.3,35.9,29.88,North,5,3.6,6.3,36,0.00,,,0.00,WSDL version 420,2013-03-17 19:50:00,
2013-03-17 12:55:00,63.4,35.9,29.88,NNW,333,2.4,6.3,36,0.00,,,0.00,WSDL version 420,2013-03-17 19:55:00,
2013-03-17 13:00:00,64.2,36.7,29.88,NE,39,2.1,3.8,36,0.00,,,0.00,WSDL version 420,2013-03-17 20:00:00,
2013-03-17 13:05:00,64.4,36.2,29.88,NNW,340,3.4,6.0,35,0.00,,,0.00,WSDL version 420,2013-03-17 20:05:00,
2013-03-17 13:10:00,63.9,35.7,29.88,NNW,340,3.9,6.0,35,0.00,,,0.00,WSDL version 420,2013-03-17 20:10:00,
2013-03-17 13:15:00,64.3,36.1,29.88,NNW,335,3.6,5.6,35,0.00,,,0.00,WSDL version 420,2013-03-17 20:15:00,
2013-03-17 13:20:00,64.6,35.7,29.88,NW,315,2.9,4.9,34,0.00,,,0.00,WSDL version 420,2013-03-17 20:20:00,
2013-03-17 13:25:00,64.7,35.7,29.88,NNW,330,3.3,5.4,34,0.00,,,0.00,WSDL version 420,2013-03-17 20:25:00,
2013-03-17 13:30:00,64.9,35.9,29.88,North,355,2.3,5.4,34,0.00,,,0.00,WSDL version 420,2013-03-17 20:30:00,
2013-03-17 13:35:00,65.0,36.0,29.88,NW,307,3.7,5.8,34,0.00,,,0.00,WSDL version 420,2013-03-17 20:35:00,
2013-03-17 13:40:00,64.9,35.9,29.88,WNW,293,3.3,5.8,34,0.00,,,0.00,WSDL version 420,2013-03-17 20:40:00,
2013-03-17 13:45:00,64.8,35.8,29.88,NNW,332,4.4,6.5,34,0.00,,,0.00,WSDL version 420,2013-03-17 20:45:00,
2013-03-17 13:50:00,64.9,35.6,29.88,NW,325,4.1,6.5,33,0.00,,,0.00,WSDL version 420,2013-03-17 20:50:00,
2013-03-17 13:55:00,64.7,35.4,29.88,NNW,341,3.6,6.0,33,0.00,,,0.00,WSDL version 420,2013-03-17 20:55:00,
2013-03-17 14:00:00,65.0,35.2,29.88,NNW,330,3.2,5.8,33,0.00,,,0.00,WSDL version 420,2013-03-17 21:00:00,
2013-03-17 14:05:00,65.2,35.4,29.88,NW,325,3.4,5.8,33,0.00,,,0.00,WSDL version 420,2013-03-17 21:05:00,
2013-03-17 14:10:00,65.1,35.3,29.88,WNW,298,3.1,5.6,33,0.00,,,0.00,WSDL version 420,2013-03-17 21:10:00,
2013-03-17 14:15:00,65.5,35.6,29.88,NNW,343,3.5,5.8,33,0.00,,,0.00,WSDL version 420,2013-03-17 21:15:00,
2013-03-17 14:20:00,65.6,35.7,29.88,WNW,287,3.0,5.8,33,0.00,,,0.00,WSDL version 420,2013-03-17 21:20:00,
2013-03-17 14:25:00,65.7,35.7,29.88,WNW,300,3.0,5.6,33,0.00,,,0.00,WSDL version 420,2013-03-17 21:25:00,
2013-03-17 14:30:00,66.0,35.3,29.85,NNW,343,2.8,4.3,32,0.00,,,0.00,WSDL version 420,2013-03-17 21:30:00,
2013-03-17 14:35:00,66.0,34.8,29.85,West,275,2.2,4.9,32,0.00,,,0.00,WSDL version 420,2013-03-17 21:35:00,
2013-03-17 14:40:00,66.4,34.9,29.85,North,353,3.4,6.0,31,0.00,,,0.00,WSDL version 420,2013-03-17 21:40:00,
2013-03-17 14:45:00,67.0,35.5,29.85,North,354,2.7,6.0,31,0.00,,,0.00,WSDL version 420,2013-03-17 21:45:00,
2013-03-17 14:50:00,67.5,35.5,29.85,NNW,345,3.1,5.4,30,0.00,,,0.00,WSDL version 420,2013-03-17 21:50:00,
2013-03-17 14:55:00,67.4,34.7,29.85,NW,312,3.4,5.8,30,0.00,,,0.00,WSDL version 420,2013-03-17 21:55:00,
2013-03-17 15:00:00,67.3,34.7,29.85,NNW,340,3.3,5.8,30,0.00,,,0.00,WSDL version 420,2013-03-17 22:00:00,
2013-03-17 15:05:00,67.6,34.6,29.85,NNW,332,3.1,4.9,30,0.00,,,0.00,WSDL version 420,2013-03-17 22:05:00,
2013-03-17 15:10:00,67.8,34.6,29.85,NNW,329,4.2,5.8,29,0.00,,,0.00,WSDL version 420,2013-03-17 22:10:00,
2013-03-17 15:15:00,67.7,34.4,29.83,NNW,338,4.2,6.3,29,0.00,,,0.00,WSDL version 420,2013-03-17 22:15:00,
2013-03-17 15:20:00,67.8,34.4,29.83,NNW,335,3.4,6.3,29,0.00,,,0.00,WSDL version 420,2013-03-17 22:20:00,
2013-03-17 15:25:00,67.9,34.1,29.83,NNW,345,3.9,6.0,28,0.00,,,0.00,WSDL version 420,2013-03-17 22:25:00,
2013-03-17 15:30:00,67.7,34.1,29.83,WNW,295,3.1,6.0,29,0.00,,,0.00,WSDL version 420,2013-03-17 22:30:00,
2013-03-17 15:35:00,67.9,34.2,29.83,WNW,284,3.9,5.8,29,0.00,,,0.00,WSDL version 420,2013-03-17 22:35:00,
2013-03-17 15:40:00,68.3,34.6,29.83,West,264,2.2,5.8,29,0.00,,,0.00,WSDL version 420,2013-03-17 22:40:00,
2013-03-17 15:45:00,69.0,36.3,29.83,SW,225,2.8,5.8,32,0.00,,,0.00,WSDL version 420,2013-03-17 22:45:00,
2013-03-17 15:50:00,69.8,38.6,29.83,WNW,293,2.9,6.3,32,0.00,,,0.00,WSDL version 420,2013-03-17 22:50:00,
2013-03-17 15:55:00,69.9,38.7,29.83,SSW,211,3.9,6.7,32,0.00,,,0.00,WSDL version 420,2013-03-17 22:55:00,
2013-03-17 16:00:00,69.8,38.6,29.83,WSW,240,3.9,6.7,32,0.00,,,0.00,WSDL version 420,2013-03-17 23:00:00,
2013-03-17 16:05:00,69.6,38.4,29.83,SW,219,4.2,6.7,32,0.00,,,0.00,WSDL version 420,2013-03-17 23:05:00,
2013-03-17 16:10:00,69.3,38.2,29.83,SSW,211,3.9,6.7,32,0.00,,,0.00,WSDL version 420,2013-03-17 23:10:00,
2013-03-17 16:15:00,69.2,38.1,29.83,SW,217,4.5,7.2,32,0.00,,,0.00,WSDL version 420,2013-03-17 23:15:00,
2013-03-17 16:20:00,68.8,38.4,29.83,SSW,208,4.7,7.2,33,0.00,,,0.00,WSDL version 420,2013-03-17 23:20:00,
2013-03-17 16:25:00,68.4,38.2,29.83,SW,218,4.2,8.1,33,0.00,,,0.00,WSDL version 420,2013-03-17 23:25:00,
2013-03-17 16:30:00,67.9,37.8,29.83,SSW,211,3.9,8.1,33,0.00,,,0.00,WSDL version 420,2013-03-17 23:30:00,
2013-03-17 16:35:00,67.5,37.4,29.83,SW,225,4.9,8.7,33,0.00,,,0.00,WSDL version 420,2013-03-17 23:35:00,
2013-03-17 16:40:00,67.2,37.2,29.83,SSW,203,5.3,11.0,33,0.00,,,0.00,WSDL version 420,2013-03-17 23:40:00,
2013-03-17 16:45:00,66.7,36.7,29.85,South,183,4.5,11.0,33,0.00,,,0.00,WSDL version 420,2013-03-17 23:45:00,
2013-03-17 16:50:00,66.2,36.3,29.85,SSW,205,4.4,8.1,33,0.00,,,0.00,WSDL version 420,2013-03-17 23:50:00,
2013-03-17 16:55:00,65.7,36.6,29.85,SSW,203,4.9,9.4,34,0.00,,,0.00,WSDL version 420,2013-03-17 23:55:00,
2013-03-17 17:00:00,65.6,36.5,29.83,SW,228,4.3,9.4,34,0.00,,,0.00,WSDL version 420,2013-03-18 00:00:00,
2013-03-17 17:05:00,65.7,36.6,29.83,SSW,205,3.3,7.4,34,0.00,,,0.00,WSDL version 420,2013-03-18 00:05:00,
2013-03-17 17:10:00,65.6,36.5,29.83,South,188,3.5,5.4,34,0.00,,,0.00,WSDL version 420,2013-03-18 00:10:00,
2013-03-17 17:15:00,65.2,36.2,29.83,SSW,200,4.1,6.5,34,0.00,,,0.00,WSDL version 420,2013-03-18 00:15:00,
2013-03-17 17:20:00,64.8,35.8,29.83,SW,230,4.9,6.5,34,0.00,,,0.00,WSDL version 420,2013-03-18 00:20:00,
2013-03-17 17:25:00,64.5,35.5,29.83,SSW,203,4.6,9.6,34,0.00,,,0.00,WSDL version 420,2013-03-18 00:25:00,
2013-03-17 17:30:00,64.3,35.5,29.83,SSW,198,3.6,9.6,35,0.00,,,0.00,WSDL version 420,2013-03-18 00:30:00,
2013-03-17 17:35:00,64.1,35.5,29.83,SSW,200,3.7,6.9,35,0.00,,,0.00,WSDL version 420,2013-03-18 00:35:00,
2013-03-17 17:40:00,63.9,35.3,29.83,SW,217,3.3,6.9,35,0.00,,,0.00,WSDL version 420,2013-03-18 00:40:00,
2013-03-17 17:45:00,64.0,35.9,29.83,SSW,208,3.4,6.5,35,0.00,,,0.00,WSDL version 420,2013-03-18 00:45:00,
2013-03-17 17:50:00,63.9,35.7,29.83,SW,214,3.2,6.5,35,0.00,,,0.00,WSDL version 420,2013-03-18 00:50:00,
2013-03-17 17:55:00,63.7,35.7,29.83,West,268,2.8,6.5,36,0.00,,,0.00,WSDL version 420,2013-03-18 00:55:00,
2013-03-17 18:00:00,62.8,35.4,29.83,NW,304,4.1,6.5,36,0.00,,,0.00,WSDL version 420,2013-03-18 01:00:00,
2013-03-17 18:05:00,62.4,35.3,29.83,NW,313,2.4,6.5,37,0.00,,,0.00,WSDL version 420,2013-03-18 01:05:00,
2013-03-17 18:10:00,62.0,35.3,29.83,WNW,300,3.4,4.7,37,0.00,,,0.00,WSDL version 420,2013-03-18 01:10:00,
2013-03-17 18:15:00,61.4,34.9,29.83,WNW,293,3.7,4.9,37,0.00,,,0.00,WSDL version 420,2013-03-18 01:15:00,
2013-03-17 18:20:00,61.0,34.8,29.83,NW,323,2.8,6.5,38,0.00,,,0.00,WSDL version 420,2013-03-18 01:20:00,
2013-03-17 18:25:00,60.7,34.4,29.83,NW,326,2.3,6.5,37,0.00,,,0.00,WSDL version 420,2013-03-18 01:25:00,
2013-03-17 18:30:00,60.0,33.7,29.83,WNW,287,3.2,5.4,37,0.00,,,0.00,WSDL version 420,2013-03-18 01:30:00,
2013-03-17 18:35:00,59.4,33.2,29.83,WNW,290,4.5,6.9,37,0.00,,,0.00,WSDL version 420,2013-03-18 01:35:00,
2013-03-17 18:40:00,58.9,33.5,29.83,WNW,298,3.5,6.9,39,0.00,,,0.00,WSDL version 420,2013-03-18 01:40:00,
2013-03-17 18:45:00,58.6,33.7,29.83,NW,305,3.1,6.3,39,0.00,,,0.00,WSDL version 420,2013-03-18 01:45:00,
2013-03-17 18:50:00,58.4,33.9,29.83,NW,321,1.8,4.7,40,0.00,,,0.00,WSDL version 420,2013-03-18 01:50:00,
2013-03-17 18:55:00,58.0,34.4,29.83,NW,310,2.6,4.7,41,0.00,,,0.00,WSDL version 420,2013-03-18 01:55:00,
2013-03-17 19:00:00,57.7,34.8,29.83,WNW,301,2.0,4.3,42,0.00,,,0.00,WSDL version 420,2013-03-18 02:00:00,
2013-03-17 19:05:00,57.4,35.2,29.83,WNW,295,2.3,4.9,44,0.00,,,0.00,WSDL version 420,2013-03-18 02:05:00,
2013-03-17 19:10:00,56.8,35.6,29.83,WNW,298,2.5,4.9,45,0.00,,,0.00,WSDL version 420,2013-03-18 02:10:00,
2013-03-17 19:15:00,56.5,35.4,29.83,WNW,303,2.2,4.3,45,0.00,,,0.00,WSDL version 420,2013-03-18 02:15:00,
2013-03-17 19:20:00,56.4,35.4,29.83,SW,225,0.1,3.4,45,0.00,,,0.00,WSDL version 420,2013-03-18 02:20:00,
2013-03-17 19:25:00,56.4,35.3,29.83,West,278,1.4,3.8,45,0.00,,,0.00,WSDL version 420,2013-03-18 02:25:00,
2013-03-17 19:30:00,55.9,34.9,29.83,WNW,288,2.2,3.8,45,0.00,,,0.00,WSDL version 420,2013-03-18 02:30:00,
2013-03-17 19:35:00,55.7,35.2,29.83,WNW,301,2.6,4.3,46,0.00,,,0.00,WSDL version 420,2013-03-18 02:35:00,
2013-03-17 19:40:00,55.4,35.0,29.83,WNW,303,1.9,4.3,46,0.00,,,0.00,WSDL version 420,2013-03-18 02:40:00,
2013-03-17 19:45:00,55.1,34.7,29.83,WNW,293,2.1,3.6,46,0.00,,,0.00,WSDL version 420,2013-03-18 02:45:00,
2013-03-17 19:50:00,55.0,35.0,29.83,West,280,0.6,3.6,47,0.00,,,0.00,WSDL version 420,2013-03-18 02:50:00,
2013-03-17 19:55:00,55.2,35.4,29.83,SSW,203,0.0,2.0,47,0.00,,,0.00,WSDL version 420,2013-03-18 02:55:00,
2013-03-17 20:00:00,55.0,34.9,29.83,NW,321,1.5,2.5,47,0.00,,,0.00,WSDL version 420,2013-03-18 03:00:00,
2013-03-17 20:05:00,54.8,35.0,29.83,SSW,200,0.0,2.5,47,0.00,,,0.00,WSDL version 420,2013-03-18 03:05:00,
2013-03-17 20:10:00,54.9,35.5,29.83,South,186,2.5,5.4,48,0.00,,,0.00,WSDL version 420,2013-03-18 03:10:00,
2013-03-17 20:17:00,55.0,37.5,29.83,South,173,2.7,5.4,52,0.00,,,0.00,WSDL version 420,2013-03-18 03:17:00,
2013-03-17 20:22:00,55.0,38.2,29.83,South,191,2.5,6.0,53,0.00,,,0.00,WSDL version 420,2013-03-18 03:22:00,
2013-03-17 20:27:00,55.0,38.5,29.83,SW,220,2.3,6.0,53,0.00,,,0.00,WSDL version 420,2013-03-18 03:27:00,
2013-03-17 20:32:00,55.0,38.6,29.83,South,190,2.8,6.0,54,0.00,,,0.00,WSDL version 420,2013-03-18 03:32:00,
2013-03-17 20:37:00,54.9,38.6,29.83,South,180,2.2,6.0,54,0.00,,,0.00,WSDL version 420,2013-03-18 03:37:00,
2013-03-17 20:42:00,54.7,39.1,29.83,South,188,2.2,5.8,56,0.00,,,0.00,WSDL version 420,2013-03-18 03:42:00,
2013-03-17 20:47:00,54.5,39.2,29.83,South,180,3.2,5.8,56,0.00,,,0.00,WSDL version 420,2013-03-18 03:47:00,
2013-03-17 20:52:00,54.4,39.1,29.83,SW,233,2.9,5.6,56,0.00,,,0.00,WSDL version 420,2013-03-18 03:52:00,
2013-03-17 20:57:00,54.1,39.2,29.83,SSW,203,2.8,6.0,57,0.00,,,0.00,WSDL version 420,2013-03-18 03:57:00,
2013-03-17 21:02:00,53.9,39.1,29.85,SSW,205,3.8,6.0,58,0.00,,,0.00,WSDL version 420,2013-03-18 04:02:00,
2013-03-17 21:07:00,53.6,39.5,29.85,SSW,208,4.3,6.5,61,0.00,,,0.00,WSDL version 420,2013-03-18 04:07:00,
2013-03-17 21:14:00,53.2,40.4,29.85,SW,219,4.4,7.8,62,0.00,,,0.00,WSDL version 420,2013-03-18 04:14:00,
2013-03-17 21:19:00,53.1,40.1,29.85,SW,215,3.4,7.6,61,0.00,,,0.00,WSDL version 420,2013-03-18 04:19:00,
2013-03-17 21:24:00,53.0,39.7,29.85,SW,217,2.5,7.6,60,0.00,,,0.00,WSDL version 420,2013-03-18 04:24:00,
2013-03-17 21:29:00,52.9,39.7,29.85,SSW,205,2.5,4.9,61,0.00,,,0.00,WSDL version 420,2013-03-18 04:29:00,
2013-03-17 21:34:00,52.8,40.0,29.85,SSW,200,2.8,5.8,62,0.00,,,0.00,WSDL version 420,2013-03-18 04:34:00,
2013-03-17 21:39:00,52.6,39.9,29.85,SSW,198,3.3,5.8,62,0.00,,,0.00,WSDL version 420,2013-03-18 04:39:00,
2013-03-17 21:44:00,52.4,40.2,29.85,SSW,208,3.2,6.5,63,0.00,,,0.00,WSDL version 420,2013-03-18 04:44:00,
2013-03-17 21:49:00,52.3,40.1,29.85,SSW,203,2.9,6.5,63,0.00,,,0.00,WSDL version 420,2013-03-18 04:49:00,
2013-03-17 21:54:00,52.1,40.4,29.85,SW,222,3.0,6.5,65,0.00,,,0.00,WSDL version 420,2013-03-18 04:54:00,
2013-03-17 21:59:00,52.0,40.5,29.88,SSW,203,2.2,6.5,64,0.00,,,0.00,WSDL version 420,2013-03-18 04:59:00,
2013-03-17 22:04:00,51.8,40.4,29.88,SSW,208,2.8,5.4,65,0.00,,,0.00,WSDL version 420,2013-03-18 05:04:00,
2013-03-17 22:09:00,51.8,40.7,29.88,SSW,211,1.9,5.4,66,0.00,,,0.00,WSDL version 420,2013-03-18 05:09:00,
2013-03-17 22:14:00,51.6,40.4,29.85,SSW,198,2.2,4.0,66,0.00,,,0.00,WSDL version 420,2013-03-18 05:14:00,
2013-03-17 22:19:00,51.6,40.6,29.85,WSW,248,1.2,3.6,66,0.00,,,0.00,WSDL version 420,2013-03-18 05:19:00,
2013-03-17 22:24:00,51.4,40.1,29.85,South,180,1.4,2.7,65,0.00,,,0.00,WSDL version 420,2013-03-18 05:24:00,
2013-03-17 22:29:00,51.3,40.0,29.85,SSW,194,0.0,2.7,65,0.00,,,0.00,WSDL version 420,2013-03-18 05:29:00,
2013-03-17 22:34:00,51.1,39.8,29.85,SSW,203,0.1,1.3,65,0.00,,,0.00,WSDL version 420,2013-03-18 05:34:00,
2013-03-17 22:39:00,51.1,39.7,29.85,South,180,0.0,2.0,65,0.00,,,0.00,WSDL version 420,2013-03-18 05:39:00,
2013-03-17 22:44:00,51.1,39.5,29.85,South,177,1.5,2.7,65,0.00,,,0.00,WSDL version 420,2013-03-18 05:44:00,
2013-03-17 22:49:00,51.0,40.6,29.85,SSE,155,2.7,4.3,68,0.00,,,0.00,WSDL version 420,2013-03-18 05:49:00,
2013-03-17 22:54:00,50.9,40.7,29.85,South,180,0.4,4.3,67,0.00,,,0.00,WSDL version 420,2013-03-18 05:54:00,
2013-03-17 22:59:00,50.6,40.1,29.85,WSW,239,0.8,3.4,67,0.00,,,0.00,WSDL version 420,2013-03-18 05:59:00,
2013-03-17 23:04:00,50.5,39.9,29.85,SW,233,0.0,2.9,66,0.00,,,0.00,WSDL version 420,2013-03-18 06:04:00,
2013-03-17 23:09:00,50.5,39.6,29.85,SW,222,0.0,2.9,66,0.00,,,0.00,WSDL version 420,2013-03-18 06:09:00,
2013-03-17 23:14:00,50.4,39.5,29.85,SSW,198,2.3,4.0,66,0.00,,,0.00,WSDL version 420,2013-03-18 06:14:00,
2013-03-17 23:19:00,50.4,39.6,29.85,South,188,2.0,4.3,67,0.00,,,0.00,WSDL version 420,2013-03-18 06:19:00,
2013-03-17 23:24:00,50.3,39.8,29.85,South,180,2.1,4.3,67,0.00,,,0.00,WSDL version 420,2013-03-18 06:24:00,
2013-03-17 23:29:00,50.2,39.7,29.85,South,185,0.6,3.4,67,0.00,,,0.00,WSDL version 420,2013-03-18 06:29:00,
2013-03-17 23:34:00,50.2,39.7,29.85,SSW,197,2.6,4.9,68,0.00,,,0.00,WSDL version 420,2013-03-18 06:34:00,
2013-03-17 23:39:00,50.2,40.0,29.85,SSW,200,2.9,4.9,68,0.00,,,0.00,WSDL version 420,2013-03-18 06:39:00,
2013-03-17 23:44:00,50.2,40.0,29.85,South,185,2.5,4.3,68,0.00,,,0.00,WSDL version 420,2013-03-18 06:44:00,
2013-03-17 23:49:00,50.2,40.0,29.85,SSW,198,2.4,6.3,68,0.00,,,0.00,WSDL version 420,2013-03-18 06:49:00,
2013-03-17 23:54:00,50.2,40.4,29.85,SSW,203,2.8,6.3,69,0.00,,,0.00,WSDL version 420,2013-03-18 06:54:00,
2013-03-17 23:59:00,50.2,40.4,29.85,SSW,195,3.6,5.8,69,0.00,,,0.00,WSDL version 420,2013-03-18 06:59:00,